Flag for Germany Weather past 2 weeks in Weiden in der Oberpfalz, Bavaria, Germany

Now
31 °F

Overcast.


Feels Like: 31 °F
Forecast: 29 / 34 °F
Wind: 2 mph from Southwest

Location: Weiden

Current Time: Feb 1, 2015 at 6:14:25 PM

Latest Report: Feb 1, 2015 at 6:00 PM


Visibility: 6 mi

Pressure: 29.35 "Hg

Humidity: 90%

Dew point: 29 °F

Location of Weiden in der OberpfalzLocation

Historic Weather in Weiden in der Oberpfalz — Graph

°F

Weiden in der Oberpfalz temperature yesterday

Maximum temperature yesterday: 32 °F (at 1:00 PM)
Minimum temperature yesterday: 26 °F (at 3:00 AM)
Average temperature yesterday: 29 °F

Past Weeks' High & Low Weather Summary

 TemperatureHumidityPressure
High38 °F (Jan 22, 3:00 PM)100% (Jan 26, 10:00 PM)30.37 "Hg (Jan 26, 10:00 PM)
Low26 °F (Jan 31, 3:00 AM)67% (Jan 29, 1:00 PM)28.76 "Hg (Jan 30, 4:00 AM)
Average32 °F90%29.83 "Hg
* Reported Jan 17 5:00 PM — Feb 1 5:00 PM, Weiden in der Oberpfalz, Weather by CustomWeather, © 2014

Note: Actual official high and low records may vary slightly from our data, if they occured in-between our weather recording intervals... More about our weather records

Advertising

Weiden in der Oberpfalz weather history for previous 24 hours

 ConditionsComfort  
Time TempWeatherWind HumidityBarometerVisibility
5:00 PM
Feb 1
32 °FOvercast.2 mph87%29.32 "Hg7 mi
4:00 PM33 °FOvercast.3 mph86%29.32 "Hg8 mi
3:00 PM32 °FOvercast.2 mph85%29.29 "Hg6 mi
2:00 PM32 °FOvercast.2 mph85%29.29 "Hg6 mi
1:00 PM32 °FOvercast.2 mph82%29.29 "Hg7 mi
12:00 PM32 °FOvercast.3 mph80%29.29 "Hg7 mi
11:00 AM31 °FPartly sunny.2 mph82%29.26 "Hg5 mi
10:00 AM30 °FFog.2 mph90%29.26 "Hg4 mi
9:00 AM29 °FFog.2 mph93%29.26 "Hg3 mi
8:00 AM28 °FFog.2 mph94%29.26 "Hg3 mi
7:00 AM26 °FFog.3 mph96%29.23 "Hg2 mi
6:00 AM26 °FFog.2 mph96%29.23 "Hg3 mi
5:00 AM29 °FFog.2 mph93%29.21 "Hg4 mi
4:00 AM30 °FOvercast.3 mph92%29.21 "Hg5 mi
3:00 AM30 °FOvercast.2 mph94%29.21 "Hg4 mi
2:00 AM30 °FLight snow. Overcast.2 mph92%29.21 "Hg4 mi
1:00 AM30 °FSnow flurries. Overcast.2 mph93%29.21 "Hg4 mi
12:00 AM30 °FLight snow. Passing clouds.2 mph93%29.21 "Hg4 mi
11:00 PM
Jan 31
30 °FOvercast.2 mph90%29.21 "Hg6 mi
10:00 PM30 °FOvercast.2 mph92%29.18 "Hg7 mi
9:00 PM30 °FOvercast.3 mph92%29.18 "Hg8 mi
8:00 PM28 °FClear.2 mph95%29.18 "Hg6 mi
7:00 PM29 °FClear.2 mph95%29.15 "Hg6 mi
6:00 PM31 °FOvercast.2 mph92%29.15 "Hg6 mi
Weather by CustomWeather, © 2014

See weather overviewHow to use our weather pages